DLH6HP OERK-EDDF

Flight info

Callsign DLH6HP
Flight time N/A
Altitude 36000
Route IVONU Z710 GAS G662 NIMAR L550 NOVPA N697 MENLI/N0473F380 L677 CVO L617 NOZ L551 ANTAR DCT RIGRO DCT DISOR DCT LONTA UL608 DOLEV DCT BEDOX DCT SIMBA DCT AKINI T161 DEBHI
Aircraft A346/H-SDE2E3FGHIJ3J4J5M1P2RWXYZ/LB1D1

Departure

Time 2026-05-06 08:09
Airport King Khalid International Airport (OERK)

Arrival

Time N/A
Airport Frankfurt Main Airport (EDDF)
Time Latitude Longitude Altitude Speed Heading
2026-05-06 07:26 24.96482 46.70129 2037 ft 0 kts 203°
2026-05-06 07:49 24.96488 46.70131 2037 ft 4 kts 204°
2026-05-06 07:50 24.96512 46.70144 2037 ft 4 kts 204°
2026-05-06 07:50 24.96537 46.70155 2037 ft 4 kts 201°
2026-05-06 07:50 24.96562 46.70165 2037 ft 4 kts 199°
2026-05-06 07:50 24.96588 46.70174 2037 ft 4 kts 198°
2026-05-06 07:51 24.96607 46.70181 2037 ft 1 kts 197°
2026-05-06 07:51 24.96610 46.70182 2037 ft 0 kts 197°
2026-05-06 07:54 24.96607 46.70181 2037 ft 2 kts 192°
2026-05-06 07:54 24.96583 46.70190 2037 ft 5 kts 134°
2026-05-06 07:54 24.96544 46.70235 2037 ft 12 kts 134°
2026-05-06 07:54 24.96481 46.70300 2037 ft 13 kts 141°
2026-05-06 07:55 24.96407 46.70353 2038 ft 8 kts 148°
2026-05-06 07:55 24.96383 46.70403 2038 ft 9 kts 86°
2026-05-06 07:55 24.96405 46.70470 2038 ft 10 kts 61°
2026-05-06 07:55 24.96441 46.70543 2038 ft 12 kts 61°
2026-05-06 07:56 24.96470 46.70605 2038 ft 2 kts 83°
2026-05-06 07:56 24.96467 46.70623 2038 ft 3 kts 114°
2026-05-06 07:56 24.96447 46.70642 2038 ft 6 kts 148°
2026-05-06 07:56 24.96393 46.70678 2038 ft 12 kts 149°
2026-05-06 07:57 24.96296 46.70739 2038 ft 18 kts 150°
2026-05-06 07:57 24.96178 46.70813 2038 ft 20 kts 150°
2026-05-06 07:57 24.96053 46.70890 2038 ft 21 kts 150°
2026-05-06 07:57 24.95924 46.70973 2039 ft 22 kts 149°
2026-05-06 07:58 24.95788 46.71060 2039 ft 23 kts 149°
2026-05-06 07:58 24.95648 46.71149 2039 ft 24 kts 150°
2026-05-06 07:58 24.95503 46.71240 2039 ft 24 kts 150°
2026-05-06 07:58 24.95355 46.71332 2039 ft 25 kts 150°
2026-05-06 07:59 24.95204 46.71427 2040 ft 25 kts 150°
2026-05-06 07:59 24.95066 46.71514 2040 ft 20 kts 150°
2026-05-06 07:59 24.94943 46.71593 2040 ft 21 kts 150°
2026-05-06 07:59 24.94814 46.71676 2040 ft 22 kts 150°
2026-05-06 08:00 24.94679 46.71762 2040 ft 23 kts 150°
2026-05-06 08:00 24.94540 46.71848 2041 ft 23 kts 150°
2026-05-06 08:00 24.94446 46.71918 2041 ft 11 kts 127°
2026-05-06 08:00 24.94441 46.71984 2041 ft 7 kts 63°
2026-05-06 08:01 24.94446 46.71993 2041 ft 3 kts 59°
2026-05-06 08:01 24.94449 46.71999 2041 ft 0 kts 59°
2026-05-06 08:01 24.94450 46.72002 2041 ft 1 kts 59°
2026-05-06 08:02 24.94451 46.72003 2041 ft 1 kts 59°
2026-05-06 08:02 24.94457 46.72014 2041 ft 2 kts 59°
2026-05-06 08:02 24.94453 46.72006 2041 ft 3 kts 59°
2026-05-06 08:02 24.94448 46.71997 2041 ft 0 kts 59°
2026-05-06 08:03 24.94450 46.72001 2041 ft 0 kts 59°
2026-05-06 08:03 24.94451 46.72003 2041 ft 0 kts 59°
2026-05-06 08:06 24.94453 46.72006 2041 ft 1 kts 59°
2026-05-06 08:06 24.94462 46.72023 2041 ft 4 kts 59°
2026-05-06 08:07 24.94469 46.72036 2041 ft 3 kts 59°
2026-05-06 08:07 24.94489 46.72073 2041 ft 11 kts 59°
2026-05-06 08:07 24.94507 46.72106 2041 ft 5 kts 59°
2026-05-06 08:07 24.94534 46.72151 2041 ft 8 kts 49°
2026-05-06 08:08 24.94586 46.72164 2041 ft 9 kts 338°
2026-05-06 08:08 24.94645 46.72126 2041 ft 11 kts 329°
2026-05-06 08:08 24.94804 46.72022 2041 ft 54 kts 329°
2026-05-06 08:08 24.95295 46.71712 2040 ft 107 kts 330°
2026-05-06 08:09 24.96098 46.71204 2039 ft 153 kts 330°
2026-05-06 08:09 24.97126 46.70553 2047 ft 190 kts 330°
2026-05-06 08:09 24.98320 46.69825 2394 ft 198 kts 333°
2026-05-06 08:09 24.99609 46.69223 2878 ft 201 kts 340°
2026-05-06 08:10 25.00938 46.68725 3375 ft 203 kts 341°
2026-05-06 08:10 25.02294 46.68230 3876 ft 208 kts 341°
2026-05-06 08:10 25.03707 46.67707 4189 ft 221 kts 341°
2026-05-06 08:10 25.05202 46.67146 4501 ft 234 kts 340°
2026-05-06 08:11 25.06785 46.66525 4750 ft 250 kts 334°
2026-05-06 08:11 25.08187 46.65318 5029 ft 265 kts 306°
2026-05-06 08:11 25.08935 46.63434 5422 ft 275 kts 278°
2026-05-06 08:11 25.08838 46.61335 6030 ft 276 kts 258°
2026-05-06 08:12 25.08447 46.59250 6687 ft 278 kts 258°
2026-05-06 08:12 25.08046 46.57149 7297 ft 281 kts 258°
2026-05-06 08:12 25.07748 46.55003 7898 ft 285 kts 264°
2026-05-06 08:12 25.07622 46.52811 8506 ft 288 kts 268°
2026-05-06 08:13 25.07569 46.50589 9089 ft 291 kts 268°
2026-05-06 08:13 25.07527 46.48342 9669 ft 294 kts 268°
2026-05-06 08:13 25.07484 46.46075 10231 ft 297 kts 268°
2026-05-06 08:13 25.07439 46.43746 10544 ft 309 kts 268°
2026-05-06 08:14 25.07390 46.41317 10792 ft 323 kts 268°
2026-05-06 08:14 25.07337 46.38795 11026 ft 335 kts 268°
2026-05-06 08:14 25.07282 46.36171 11252 ft 347 kts 268°
2026-05-06 08:14 25.07225 46.33453 11466 ft 359 kts 268°
2026-05-06 08:15 25.07165 46.30664 11669 ft 370 kts 268°
2026-05-06 08:15 25.07102 46.27782 11864 ft 381 kts 268°
2026-05-06 08:15 25.07036 46.24815 12056 ft 390 kts 268°
2026-05-06 08:15 25.06968 46.21803 12379 ft 395 kts 268°
2026-05-06 08:16 25.06900 46.18761 12790 ft 397 kts 268°
2026-05-06 08:16 25.06830 46.15704 13173 ft 399 kts 268°
2026-05-06 08:16 25.06759 46.12635 13529 ft 402 kts 268°
2026-05-06 08:16 25.06687 46.09533 13874 ft 404 kts 268°
2026-05-06 08:17 25.06614 46.06422 14206 ft 407 kts 268°
2026-05-06 08:17 25.06540 46.03287 14527 ft 409 kts 268°
2026-05-06 08:17 25.06465 46.00145 14835 ft 411 kts 268°
2026-05-06 08:17 25.06389 45.96984 15126 ft 413 kts 268°
2026-05-06 08:18 25.06311 45.93807 15405 ft 415 kts 268°
2026-05-06 08:18 25.06233 45.90621 15845 ft 412 kts 268°
2026-05-06 08:18 25.06155 45.87475 16332 ft 408 kts 268°
2026-05-06 08:18 25.06077 45.84335 16598 ft 410 kts 268°
2026-05-06 08:19 25.05997 45.81173 16818 ft 413 kts 268°
2026-05-06 08:19 25.05916 45.77996 17048 ft 415 kts 268°
2026-05-06 08:19 25.05834 45.74791 17149 ft 420 kts 268°
2026-05-06 08:19 25.05759 45.71543 17245 ft 425 kts 270°
2026-05-06 08:20 25.06016 45.68281 17334 ft 429 kts 279°
2026-05-06 08:20 25.06758 45.65126 17484 ft 432 kts 289°
2026-05-06 08:20 25.07958 45.62031 17678 ft 433 kts 295°
2026-05-06 08:20 25.09252 45.59067 17853 ft 434 kts 296°
2026-05-06 08:21 25.10585 45.56068 18006 ft 436 kts 296°
2026-05-06 08:21 25.11921 45.53056 18160 ft 437 kts 296°
2026-05-06 08:21 25.13254 45.50035 18312 ft 438 kts 295°
2026-05-06 08:21 25.14604 45.46962 18443 ft 441 kts 295°
2026-05-06 08:22 25.15949 45.43914 18608 ft 441 kts 295°
2026-05-06 08:22 25.17308 45.40865 18789 ft 441 kts 296°
2026-05-06 08:22 25.18671 45.37831 18966 ft 441 kts 296°
2026-05-06 08:22 25.20045 45.34801 19140 ft 441 kts 296°
2026-05-06 08:23 25.21429 45.31775 19313 ft 440 kts 296°
2026-05-06 08:23 25.22820 45.28761 19482 ft 440 kts 296°
2026-05-06 08:23 25.24219 45.25757 19646 ft 439 kts 297°
2026-05-06 08:23 25.25629 45.22758 19807 ft 439 kts 297°
2026-05-06 08:24 25.27050 45.19762 19967 ft 439 kts 297°
2026-05-06 08:24 25.28477 45.16780 20124 ft 438 kts 297°
2026-05-06 08:24 25.29912 45.13810 20277 ft 438 kts 297°
2026-05-06 08:24 25.31360 45.10841 20428 ft 438 kts 298°
2026-05-06 08:25 25.32816 45.07881 20575 ft 437 kts 298°
2026-05-06 08:25 25.34280 45.04935 20720 ft 437 kts 298°
2026-05-06 08:25 25.35755 45.01993 20862 ft 437 kts 298°
2026-05-06 08:25 25.37240 44.99060 20999 ft 436 kts 298°
2026-05-06 08:26 25.38731 44.96141 21136 ft 436 kts 299°
2026-05-06 08:26 25.40235 44.93226 21269 ft 435 kts 299°
2026-05-06 08:26 25.41725 44.90365 21399 ft 435 kts 299°
2026-05-06 08:26 25.43248 44.87467 21530 ft 434 kts 300°
2026-05-06 08:27 25.44776 44.84589 21657 ft 434 kts 300°
2026-05-06 08:27 25.46317 44.81712 21783 ft 433 kts 300°
2026-05-06 08:27 25.47779 44.78796 21834 ft 434 kts 294°
2026-05-06 08:27 25.48671 44.75593 21798 ft 437 kts 279°
2026-05-06 08:28 25.48871 44.72233 21785 ft 439 kts 269°
2026-05-06 08:28 25.49097 44.68862 21733 ft 442 kts 283°
2026-05-06 08:28 25.50340 44.65746 21634 ft 447 kts 304°
2026-05-06 08:28 25.52467 44.63228 21631 ft 448 kts 317°
2026-05-06 08:29 25.54791 44.60916 21641 ft 450 kts 318°
2026-05-06 08:29 25.57123 44.58582 21606 ft 452 kts 317°
2026-05-06 08:29 25.59432 44.56200 21565 ft 455 kts 316°
2026-05-06 08:29 25.61728 44.53765 21520 ft 457 kts 316°
2026-05-06 08:30 25.64014 44.51297 21468 ft 459 kts 315°
2026-05-06 08:30 25.66295 44.48804 21410 ft 462 kts 315°
2026-05-06 08:30 25.68580 44.46290 21368 ft 463 kts 315°
2026-05-06 08:30 25.70870 44.43763 21372 ft 464 kts 315°
2026-05-06 08:31 25.73153 44.41235 21398 ft 464 kts 315°
2026-05-06 08:31 25.75439 44.38701 21419 ft 464 kts 315°
2026-05-06 08:31 25.77721 44.36169 21434 ft 464 kts 315°
2026-05-06 08:31 25.80008 44.33629 21450 ft 464 kts 315°
2026-05-06 08:32 25.82291 44.31092 21466 ft 464 kts 315°
2026-05-06 08:32 25.84542 44.28589 21479 ft 465 kts 315°
2026-05-06 08:32 25.86829 44.26044 21493 ft 465 kts 315°
2026-05-06 08:32 25.89111 44.23504 21507 ft 465 kts 315°
2026-05-06 08:33 25.91397 44.20957 21519 ft 465 kts 315°
2026-05-06 08:33 25.93681 44.18412 21526 ft 465 kts 315°
2026-05-06 08:33 25.95970 44.15859 21528 ft 465 kts 315°
2026-05-06 08:33 25.98251 44.13313 21551 ft 465 kts 315°
2026-05-06 08:34 26.00537 44.10761 21566 ft 465 kts 315°
2026-05-06 08:34 26.05105 44.05655 21584 ft 465 kts 315°
2026-05-06 08:34 26.06620 44.03961 21591 ft 465 kts 315°
2026-05-06 08:35 26.08904 44.01405 21602 ft 466 kts 315°
2026-05-06 08:35 26.11187 43.98848 21611 ft 466 kts 314°
2026-05-06 08:35 26.13474 43.96285 21618 ft 466 kts 314°
2026-05-06 08:35 26.15755 43.93727 21626 ft 466 kts 314°
2026-05-06 08:36 26.18039 43.91164 21637 ft 466 kts 314°
2026-05-06 08:36 26.20321 43.88600 21643 ft 466 kts 314°
2026-05-06 08:36 26.22605 43.86034 21709 ft 467 kts 314°
2026-05-06 08:36 26.24893 43.83461 21828 ft 467 kts 314°
2026-05-06 08:37 26.27169 43.80860 21939 ft 468 kts 313°
2026-05-06 08:37 26.29299 43.78122 21987 ft 467 kts 308°
2026-05-06 08:37 26.31249 43.75220 21945 ft 468 kts 304°
2026-05-06 08:37 26.33019 43.72173 21929 ft 468 kts 301°
2026-05-06 08:38 26.34720 43.69084 21930 ft 468 kts 301°
2026-05-06 08:38 26.36412 43.65980 21923 ft 468 kts 301°
2026-05-06 08:38 26.38100 43.62878 21915 ft 468 kts 301°
2026-05-06 08:38 26.39791 43.59778 21912 ft 467 kts 301°
2026-05-06 08:39 26.41487 43.56671 21909 ft 467 kts 301°
2026-05-06 08:39 26.43180 43.53572 21903 ft 467 kts 301°
2026-05-06 08:39 26.44873 43.50475 21902 ft 467 kts 301°
2026-05-06 08:39 26.46566 43.47375 21899 ft 467 kts 301°
2026-05-06 08:40 26.48264 43.44267 21895 ft 467 kts 301°
2026-05-06 08:40 26.49953 43.41172 21896 ft 467 kts 301°
2026-05-06 08:40 26.51648 43.38064 21893 ft 467 kts 301°
2026-05-06 08:40 26.53340 43.34961 21893 ft 467 kts 301°
2026-05-06 08:41 26.55031 43.31857 21888 ft 467 kts 301°
2026-05-06 08:41 26.56721 43.28752 21886 ft 467 kts 301°
2026-05-06 08:41 26.58410 43.25647 21885 ft 467 kts 301°
2026-05-06 08:41 26.60099 43.22540 21881 ft 467 kts 301°
2026-05-06 08:42 26.61786 43.19434 21882 ft 467 kts 301°
2026-05-06 08:42 26.63451 43.16365 21880 ft 467 kts 301°
2026-05-06 08:42 26.65137 43.13257 21878 ft 467 kts 301°
2026-05-06 08:42 26.66823 43.10148 21876 ft 467 kts 301°
2026-05-06 08:43 26.68509 43.07038 21876 ft 467 kts 301°
2026-05-06 08:43 26.70196 43.03924 21874 ft 467 kts 301°
2026-05-06 08:43 26.71877 43.00818 21874 ft 467 kts 301°
2026-05-06 08:43 26.73561 42.97706 21872 ft 467 kts 301°
2026-05-06 08:44 26.75242 42.94596 21870 ft 467 kts 301°
2026-05-06 08:44 26.76923 42.91482 21871 ft 467 kts 301°
2026-05-06 08:44 26.78604 42.88367 21870 ft 467 kts 301°
2026-05-06 08:44 26.80287 42.85247 21870 ft 467 kts 301°
2026-05-06 08:45 26.81966 42.82133 21870 ft 467 kts 301°
2026-05-06 08:45 26.83646 42.79013 21869 ft 467 kts 301°
2026-05-06 08:45 26.85326 42.75891 21869 ft 467 kts 301°
2026-05-06 08:45 26.87003 42.72773 21871 ft 467 kts 301°
2026-05-06 08:46 26.88682 42.69649 21871 ft 467 kts 301°
2026-05-06 08:46 26.90356 42.66532 21870 ft 467 kts 301°
2026-05-06 08:46 26.92034 42.63405 21871 ft 467 kts 301°
2026-05-06 08:46 26.93708 42.60283 21869 ft 467 kts 301°
2026-05-06 08:47 26.95359 42.57203 21869 ft 467 kts 301°
2026-05-06 08:47 26.97037 42.54071 21869 ft 467 kts 301°
2026-05-06 08:47 26.98709 42.50945 21867 ft 467 kts 301°
2026-05-06 08:47 27.00378 42.47824 21868 ft 467 kts 301°
2026-05-06 08:48 27.02052 42.44691 21867 ft 467 kts 300°
2026-05-06 08:48 27.03721 42.41566 21864 ft 467 kts 300°
2026-05-06 08:48 27.05393 42.38433 21867 ft 467 kts 300°
2026-05-06 08:48 27.07064 42.35298 21866 ft 467 kts 300°
2026-05-06 08:49 27.08732 42.32169 21863 ft 467 kts 300°
2026-05-06 08:49 27.10397 42.29042 21863 ft 467 kts 300°
2026-05-06 08:49 27.12066 42.25904 21861 ft 467 kts 300°
2026-05-06 08:49 27.13731 42.22771 21860 ft 467 kts 300°
2026-05-06 08:50 27.15397 42.19636 21858 ft 467 kts 300°
2026-05-06 08:50 27.17064 42.16496 21855 ft 467 kts 300°
2026-05-06 08:50 27.18727 42.13361 21855 ft 467 kts 300°
2026-05-06 08:50 27.20389 42.10225 21856 ft 467 kts 300°
2026-05-06 08:51 27.22053 42.07083 21856 ft 467 kts 300°
2026-05-06 08:51 27.23717 42.03941 21855 ft 467 kts 300°
2026-05-06 08:51 27.25376 42.00803 21853 ft 467 kts 300°
2026-05-06 08:51 27.27032 41.97671 21856 ft 467 kts 300°
2026-05-06 08:52 27.28693 41.94524 21857 ft 467 kts 300°
2026-05-06 08:52 27.30352 41.91381 21856 ft 467 kts 300°
2026-05-06 08:52 27.31987 41.88281 21855 ft 467 kts 300°
2026-05-06 08:52 27.33647 41.85131 21857 ft 467 kts 300°
2026-05-06 08:53 27.35304 41.81985 21855 ft 467 kts 300°
2026-05-06 08:53 27.36957 41.78843 21856 ft 467 kts 300°
2026-05-06 08:53 27.38614 41.75691 21856 ft 467 kts 300°
2026-05-06 08:53 27.40281 41.72544 21853 ft 467 kts 301°
2026-05-06 08:54 27.42125 41.69534 21852 ft 467 kts 307°
2026-05-06 08:54 27.44207 41.66717 21855 ft 467 kts 312°
2026-05-06 08:54 27.46499 41.64121 21856 ft 468 kts 316°
2026-05-06 08:54 27.48889 41.61628 21859 ft 468 kts 317°
2026-05-06 08:55 27.51295 41.59161 21856 ft 468 kts 317°
2026-05-06 08:55 27.53707 41.56692 21853 ft 468 kts 317°
2026-05-06 08:55 27.56112 41.54223 21852 ft 468 kts 317°
2026-05-06 08:55 27.58518 41.51744 21853 ft 468 kts 317°
2026-05-06 08:56 27.60917 41.49265 21847 ft 468 kts 317°
2026-05-06 08:56 27.63313 41.46785 21850 ft 468 kts 317°
2026-05-06 08:56 27.65713 41.44298 21852 ft 468 kts 317°
2026-05-06 08:56 27.68105 41.41816 21851 ft 468 kts 317°
2026-05-06 08:57 27.70503 41.39326 21851 ft 468 kts 317°
2026-05-06 08:57 27.72896 41.36840 21852 ft 468 kts 317°
2026-05-06 08:57 27.75292 41.34348 21853 ft 468 kts 317°
2026-05-06 08:57 27.77688 41.31855 21855 ft 468 kts 317°
2026-05-06 08:58 27.80083 41.29362 21853 ft 468 kts 317°
2026-05-06 08:58 27.82473 41.26872 21854 ft 468 kts 317°
2026-05-06 08:58 27.84869 41.24374 21854 ft 468 kts 317°
2026-05-06 08:58 27.87259 41.21880 21854 ft 468 kts 317°
2026-05-06 08:59 27.89651 41.19383 21854 ft 468 kts 317°
2026-05-06 08:59 27.92045 41.16883 21856 ft 468 kts 317°
2026-05-06 08:59 27.94436 41.14389 21856 ft 468 kts 317°
2026-05-06 08:59 27.96798 41.11924 21857 ft 468 kts 317°
2026-05-06 09:00 27.99191 41.09425 21857 ft 468 kts 317°
2026-05-06 09:00 28.01578 41.06929 21856 ft 468 kts 317°
2026-05-06 09:00 28.03966 41.04430 21859 ft 468 kts 317°
2026-05-06 09:00 28.06358 41.01925 21858 ft 468 kts 317°
2026-05-06 09:01 28.08749 40.99418 21859 ft 468 kts 317°
2026-05-06 09:01 28.11136 40.96914 21860 ft 468 kts 317°
2026-05-06 09:01 28.13526 40.94405 21859 ft 468 kts 317°
2026-05-06 09:01 28.15915 40.91895 21860 ft 468 kts 317°
2026-05-06 09:02 28.18300 40.89389 21860 ft 468 kts 317°
2026-05-06 09:02 28.20690 40.86875 21860 ft 468 kts 317°
2026-05-06 09:02 28.23073 40.84368 21860 ft 468 kts 317°
2026-05-06 09:02 28.25459 40.81855 21861 ft 468 kts 317°
2026-05-06 09:03 28.27845 40.79340 21861 ft 468 kts 317°
2026-05-06 09:03 28.30232 40.76823 21862 ft 468 kts 317°
2026-05-06 09:03 28.32618 40.74305 21861 ft 468 kts 317°
2026-05-06 09:03 28.35000 40.71791 21862 ft 468 kts 317°
2026-05-06 09:04 28.37386 40.69270 21863 ft 468 kts 317°
2026-05-06 09:04 28.39770 40.66749 21863 ft 468 kts 317°
2026-05-06 09:04 28.42151 40.64231 21864 ft 468 kts 317°
2026-05-06 09:04 28.44535 40.61707 21864 ft 468 kts 317°
2026-05-06 09:05 28.46886 40.59217 21864 ft 468 kts 317°
2026-05-06 09:05 28.49264 40.56696 21865 ft 468 kts 317°
2026-05-06 09:05 28.51648 40.54168 21866 ft 468 kts 316°
2026-05-06 09:05 28.54029 40.51641 21866 ft 468 kts 316°
2026-05-06 09:06 28.56411 40.49111 21867 ft 468 kts 316°
2026-05-06 09:06 28.58790 40.46583 21868 ft 468 kts 316°
2026-05-06 09:06 28.61166 40.44056 21868 ft 468 kts 316°
2026-05-06 09:06 28.63546 40.41524 21868 ft 468 kts 316°
2026-05-06 09:07 28.65926 40.38990 21868 ft 468 kts 316°
2026-05-06 09:07 28.68303 40.36457 21869 ft 468 kts 316°
2026-05-06 09:07 28.70682 40.33921 21869 ft 468 kts 316°
2026-05-06 09:07 28.73055 40.31389 21870 ft 468 kts 316°
2026-05-06 09:08 28.75434 40.28849 21870 ft 468 kts 316°
2026-05-06 09:08 28.77809 40.26312 21870 ft 468 kts 316°
2026-05-06 09:08 28.80186 40.23771 21871 ft 468 kts 316°
2026-05-06 09:08 28.82563 40.21228 21872 ft 468 kts 316°
2026-05-06 09:09 28.84936 40.18688 21872 ft 468 kts 316°
2026-05-06 09:09 28.87312 40.16143 21873 ft 468 kts 316°
2026-05-06 09:09 28.89683 40.13601 21874 ft 468 kts 316°
2026-05-06 09:09 28.92058 40.11054 21874 ft 468 kts 316°
2026-05-06 09:10 28.94431 40.08506 21875 ft 468 kts 316°
2026-05-06 09:10 28.96805 40.05955 21875 ft 468 kts 316°
2026-05-06 09:10 28.99172 40.03410 21875 ft 468 kts 316°
2026-05-06 09:10 29.01539 40.00864 21876 ft 468 kts 316°
2026-05-06 09:11 29.03905 39.98316 21877 ft 468 kts 316°
2026-05-06 09:11 29.06272 39.95766 21877 ft 468 kts 316°
2026-05-06 09:11 29.08538 39.93093 21835 ft 468 kts 308°
2026-05-06 09:11 29.10160 39.89871 21817 ft 468 kts 292°
2026-05-06 09:12 29.10981 39.86291 21853 ft 466 kts 277°
2026-05-06 09:12 29.11107 39.82589 21884 ft 465 kts 270°
2026-05-06 09:12 29.11105 39.78885 21874 ft 465 kts 269°
2026-05-06 09:12 29.11093 39.75234 21846 ft 466 kts 269°
2026-05-06 09:13 29.11086 39.71521 21848 ft 466 kts 270°
2026-05-06 09:13 29.11085 39.67810 21854 ft 466 kts 270°
2026-05-06 09:13 29.11089 39.64105 21855 ft 466 kts 270°
2026-05-06 09:13 29.11094 39.60395 21855 ft 466 kts 270°
2026-05-06 09:14 29.11101 39.56683 21857 ft 466 kts 270°
2026-05-06 09:14 29.11108 39.52971 21859 ft 466 kts 270°
2026-05-06 09:14 29.11115 39.49267 21859 ft 466 kts 270°
2026-05-06 09:14 29.11120 39.45563 21861 ft 466 kts 270°
2026-05-06 09:15 29.11125 39.41853 21862 ft 466 kts 270°
2026-05-06 09:15 29.11129 39.38138 21864 ft 466 kts 270°
2026-05-06 09:15 29.11131 39.34431 21866 ft 466 kts 270°
2026-05-06 09:15 29.11133 39.30720 21866 ft 466 kts 270°
2026-05-06 09:16 29.11134 39.27008 21867 ft 466 kts 270°
2026-05-06 09:16 29.11133 39.23305 21869 ft 466 kts 270°
2026-05-06 09:16 29.11132 39.19643 21869 ft 466 kts 270°
2026-05-06 09:16 29.11129 39.15929 21871 ft 466 kts 270°
2026-05-06 09:17 29.11126 39.12217 21871 ft 466 kts 270°
2026-05-06 09:17 29.11121 39.08511 21872 ft 466 kts 270°
2026-05-06 09:17 29.11115 39.04799 21874 ft 466 kts 269°
2026-05-06 09:17 29.11108 39.01095 21875 ft 466 kts 269°
2026-05-06 09:18 29.11100 38.97391 21875 ft 466 kts 269°
2026-05-06 09:18 29.11091 38.93678 21876 ft 466 kts 269°
2026-05-06 09:18 29.11081 38.89966 21877 ft 466 kts 269°
2026-05-06 09:18 29.11068 38.86260 21878 ft 466 kts 269°
2026-05-06 09:19 29.11053 38.82546 21879 ft 466 kts 269°
2026-05-06 09:19 29.11037 38.78833 21879 ft 466 kts 269°
2026-05-06 09:19 29.11020 38.75127 21881 ft 466 kts 269°
2026-05-06 09:19 29.11001 38.71414 21880 ft 466 kts 269°
2026-05-06 09:20 29.10982 38.67708 21881 ft 466 kts 269°
2026-05-06 09:20 29.10961 38.63992 21882 ft 466 kts 269°
2026-05-06 09:20 29.10940 38.60285 21883 ft 466 kts 269°
2026-05-06 09:20 29.10917 38.56570 21883 ft 466 kts 269°
2026-05-06 09:21 29.10893 38.52863 21884 ft 466 kts 269°
2026-05-06 09:21 29.10868 38.49152 21885 ft 466 kts 269°
2026-05-06 09:21 29.10842 38.45495 21883 ft 466 kts 269°
2026-05-06 09:21 29.10815 38.41782 21885 ft 466 kts 269°
2026-05-06 09:22 29.10787 38.38070 21887 ft 466 kts 269°
2026-05-06 09:22 29.10759 38.34359 21887 ft 466 kts 269°
2026-05-06 09:22 29.10731 38.30651 21890 ft 466 kts 269°
2026-05-06 09:22 29.10701 38.26944 21890 ft 466 kts 269°
2026-05-06 09:23 29.10670 38.23233 21890 ft 466 kts 269°
2026-05-06 09:23 29.10637 38.19518 21892 ft 466 kts 269°
2026-05-06 09:23 29.10603 38.15802 21892 ft 466 kts 269°
2026-05-06 09:23 29.10568 38.12101 21892 ft 466 kts 269°
2026-05-06 09:24 29.10532 38.08383 21893 ft 466 kts 269°
2026-05-06 09:24 29.10495 38.04676 21894 ft 466 kts 269°
2026-05-06 09:24 29.10457 38.00962 21895 ft 466 kts 269°
2026-05-06 09:24 29.10418 37.97263 21894 ft 466 kts 269°
2026-05-06 09:25 29.10378 37.93553 21898 ft 466 kts 269°
2026-05-06 09:25 29.10337 37.89838 21898 ft 466 kts 269°
2026-05-06 09:25 29.10295 37.86130 21898 ft 466 kts 269°
2026-05-06 09:25 29.10251 37.82420 21900 ft 466 kts 269°
2026-05-06 09:26 29.10208 37.78759 21900 ft 466 kts 269°
2026-05-06 09:26 29.10161 37.74993 21901 ft 466 kts 269°
2026-05-06 09:26 29.10116 37.71334 21902 ft 466 kts 269°
2026-05-06 09:26 29.10068 37.67625 21904 ft 466 kts 269°
2026-05-06 09:27 29.10019 37.63914 21901 ft 466 kts 269°
2026-05-06 09:27 29.09969 37.60203 21904 ft 466 kts 269°
2026-05-06 09:27 29.09918 37.56488 21904 ft 466 kts 269°
2026-05-06 09:27 29.09866 37.52778 21903 ft 466 kts 269°
2026-05-06 09:28 29.09820 37.49063 21904 ft 466 kts 269°
2026-05-06 09:28 29.09792 37.45352 21905 ft 466 kts 269°
2026-05-06 09:28 29.09768 37.41645 21907 ft 466 kts 269°
2026-05-06 09:28 29.09744 37.37930 21906 ft 466 kts 269°
2026-05-06 09:29 29.09718 37.34220 21904 ft 466 kts 269°
2026-05-06 09:29 29.09695 37.30489 21874 ft 467 kts 266°
2026-05-06 09:29 29.09689 37.26826 21698 ft 454 kts 266°
2026-05-06 09:29 29.09665 37.23267 21736 ft 435 kts 265°
2026-05-06 09:30 29.09645 37.21023 22035 ft 416 kts 265°
2026-05-06 09:30 29.09624 37.17801 22313 ft 396 kts 265°
2026-05-06 09:30 29.09570 37.14653 22240 ft 395 kts 268°
2026-05-06 09:30 29.09510 37.11491 22286 ft 399 kts 269°
2026-05-06 09:31 29.09487 37.08267 22355 ft 407 kts 268°
2026-05-06 09:31 29.09442 37.05034 22518 ft 408 kts 269°
2026-05-06 09:31 29.09411 37.01768 22535 ft 411 kts 269°
2026-05-06 09:31 29.09382 36.98485 22567 ft 414 kts 269°
2026-05-06 09:32 29.09351 36.95173 22595 ft 417 kts 269°
2026-05-06 09:32 29.09317 36.91821 22617 ft 420 kts 269°
2026-05-06 09:32 29.09281 36.88466 22629 ft 423 kts 269°
2026-05-06 09:32 29.09246 36.85130 22581 ft 430 kts 270°
2026-05-06 09:33 29.09224 36.81659 22798 ft 434 kts 269°
2026-05-06 09:33 29.09177 36.78227 23029 ft 431 kts 269°
2026-05-06 09:33 29.09127 36.74780 22975 ft 434 kts 269°
2026-05-06 09:33 29.09079 36.71318 22951 ft 437 kts 269°
2026-05-06 09:34 29.09031 36.67825 22925 ft 439 kts 269°
2026-05-06 09:34 29.08984 36.64314 22892 ft 442 kts 269°
2026-05-06 09:34 29.08942 36.60764 22811 ft 449 kts 266°
2026-05-06 09:34 29.08879 36.57148 22907 ft 454 kts 268°
2026-05-06 09:35 29.08798 36.53546 23102 ft 450 kts 269°
2026-05-06 09:35 29.08756 36.49955 23035 ft 453 kts 269°
2026-05-06 09:35 29.08726 36.46304 22859 ft 467 kts 265°
2026-05-06 09:35 29.08647 36.42553 23141 ft 473 kts 264°
2026-05-06 09:36 29.08541 36.38794 23815 ft 472 kts 264°
2026-05-06 09:36 29.08428 36.35020 24232 ft 478 kts 265°
2026-05-06 09:36 29.08314 36.31217 24551 ft 485 kts 265°
2026-05-06 09:36 29.08200 36.27327 24918 ft 491 kts 265°
2026-05-06 09:37 29.08086 36.23402 25302 ft 496 kts 266°
2026-05-06 09:37 29.07971 36.19439 25674 ft 501 kts 266°
2026-05-06 09:37 29.07856 36.15433 26044 ft 506 kts 266°
2026-05-06 09:37 29.07739 36.11388 26407 ft 510 kts 267°
2026-05-06 09:38 29.07620 36.07311 26785 ft 515 kts 266°
2026-05-06 09:38 29.07532 36.03221 27402 ft 511 kts 264°
2026-05-06 09:38 29.07424 35.99220 28441 ft 497 kts 263°
2026-05-06 09:38 29.07307 35.95312 29409 ft 487 kts 263°
2026-05-06 09:39 29.07185 35.91464 30208 ft 479 kts 263°
2026-05-06 09:39 29.07064 35.87688 31046 ft 470 kts 263°
2026-05-06 09:39 29.06947 35.83990 31880 ft 460 kts 262°
2026-05-06 09:39 29.06831 35.80369 32552 ft 454 kts 262°
2026-05-06 09:40 29.06713 35.76755 32937 ft 455 kts 262°
2026-05-06 09:40 29.06594 35.73162 33197 ft 459 kts 262°
2026-05-06 09:40 29.06352 35.65818 33717 ft 465 kts 262°
2026-05-06 09:41 29.06230 35.62109 33988 ft 467 kts 263°
2026-05-06 09:41 29.06108 35.58383 34260 ft 469 kts 263°
2026-05-06 09:41 29.05984 35.54637 34517 ft 472 kts 263°
2026-05-06 09:41 29.05858 35.50878 34775 ft 474 kts 263°
2026-05-06 09:42 29.05732 35.47098 35058 ft 475 kts 263°
2026-05-06 09:42 29.05604 35.43306 35298 ft 477 kts 263°
2026-05-06 09:42 29.05464 35.39514 35408 ft 471 kts 267°
2026-05-06 09:42 29.05306 35.35820 35765 ft 456 kts 267°
2026-05-06 09:43 29.05186 35.32235 35898 ft 445 kts 268°
2026-05-06 09:43 29.05076 35.28728 35952 ft 437 kts 268°
2026-05-06 09:43 29.04907 35.23561 35980 ft 425 kts 267°
2026-05-06 09:44 29.04868 35.22421 35983 ft 423 kts 267°
2026-05-06 09:44 29.04636 35.15790 35988 ft 409 kts 267°
2026-05-06 09:45 29.04401 35.09239 35996 ft 410 kts 267°
2026-05-06 09:45 29.04166 35.02872 35989 ft 396 kts 267°
2026-05-06 09:46 29.03945 34.97112 35981 ft 384 kts 267°
2026-05-06 09:46 29.03799 34.93722 35838 ft 388 kts 271°
2026-05-06 09:47 29.03542 34.89819 35862 ft 386 kts 267°
2026-05-06 09:47 29.03405 34.83826 35965 ft 369 kts 269°